Weather History for KDDC - December, 2012

Change the Weather History Date:

Saturday, December 15, 2012

  Actual Average (KGCK) Record (KGCK)
Temperature  
Mean Temperature 44 °F -  
Max Temperature 55 °F 43 °F - (-1)
Min Temperature 34 °F 17 °F - (-1)
Degree Days  
Heating Degree Days 20    
Moisture  
Dew Point 34 °F    
Average Humidity 70    
Maximum Humidity 89    
Minimum Humidity 29    
Precipitation  
Precipitation 0.08 in - - ()
Sea Level Pressure  
Sea Level Pressure 29.64 in    
Wind  
Wind Speed 14 mph (West)    
Max Wind Speed 22 mph    
Max Gust Speed 30 mph    
Visibility 10 miles    
Events Rain    
Averages and records for this station are not official NWS values.
T = Trace of Precipitation, MM = Missing Value Source: NWS Daily Summary

Daily Weather History Graph

Daily Weather History Graph

Search for Another Location

Airport or City:

Trip Planner

Search our weather history database for the weather conditions in past years. The results will help you decide how hot, cold, wet, or windy it might be!

Date:

Astronomy

Dec. 15, 2012 Rise Set
Actual Time 7:48 AM CST 5:22 PM CST
Civil Twilight 7:18 AM CST 5:51 PM CST
Nautical Twilight 6:46 AM CST 6:24 PM CST
Astronomical Twilight 6:14 AM CST 6:56 PM CST
Moon 9:44 AM CST (12/15) 8:26 PM CST (12/15)
Length of Visible Light 10h 32m
Length of Day
9h 33m
Waxing Crescent, 8% of the Moon is Illuminated
Dec 15
Waxing Crescent
Dec 19
First Quarter
Dec 28
Full
Jan 4
Last Quarter
Jan 11
New

Hourly Weather History & Observations

Time (CST) Temp. Windchill Dew Point Humidity Pressure Visibility Wind Dir Wind Speed Gust Speed Precip Events Conditions
12:52 AM 45.0 °F 38.2 °F 41.0 °F 86% 29.37 in 9.0 mi WSW 15.0 mph - 0.07 in Rain Light Rain
1:52 AM 44.1 °F 36.2 °F 41.0 °F 89% 29.41 in 10.0 mi WSW 18.4 mph 29.9 mph 0.01 in   Partly Cloudy
2:09 AM 44.6 °F 36.1 °F 41.0 °F 87% 29.43 in 10.0 mi West 21.9 mph - N/A   Mostly Cloudy
2:23 AM 44.6 °F 37.2 °F 41.0 °F 87% 29.44 in 10.0 mi West 17.3 mph - N/A   Scattered Clouds
2:52 AM 45.0 °F 36.6 °F 41.0 °F 86% 29.46 in 10.0 mi West 21.9 mph 29.9 mph N/A   Partly Cloudy
3:52 AM 42.1 °F 33.3 °F 37.9 °F 85% 29.54 in 7.0 mi West 19.6 mph 28.8 mph N/A   Clear
4:52 AM 39.9 °F 31.8 °F 36.0 °F 86% 29.58 in 10.0 mi WNW 15.0 mph 23.0 mph N/A   Clear
5:52 AM 39.0 °F 29.9 °F 35.1 °F 86% 29.61 in 10.0 mi WNW 17.3 mph - N/A   Clear
6:52 AM 37.9 °F 28.2 °F 34.0 °F 86% 29.64 in 10.0 mi WNW 18.4 mph - N/A   Clear
7:52 AM 36.0 °F 28.0 °F 30.9 °F 82% 29.68 in 10.0 mi West 11.5 mph - N/A   Clear
8:52 AM 37.9 °F 29.2 °F 30.0 °F 73% 29.68 in 10.0 mi West 15.0 mph - N/A   Clear
9:52 AM 42.1 °F 35.2 °F 33.1 °F 70% 29.70 in 10.0 mi West 12.7 mph - N/A   Clear
10:52 AM 48.0 °F - 36.0 °F 63% 29.70 in 10.0 mi West 8.1 mph - N/A   Clear
11:52 AM 51.1 °F - 34.0 °F 52% 29.69 in 10.0 mi West 10.4 mph - N/A   Clear
12:52 PM 53.1 °F - 33.1 °F 47% 29.66 in 10.0 mi West 10.4 mph - N/A   Clear
1:52 PM 55.9 °F - 33.1 °F 42% 29.68 in 10.0 mi West 11.5 mph - N/A   Clear
2:52 PM 54.0 °F - 30.9 °F 41% 29.67 in 10.0 mi West 11.5 mph - N/A   Clear
3:52 PM 54.0 °F - 33.1 °F 45% 29.68 in 10.0 mi WNW 9.2 mph - N/A   Clear
4:52 PM 51.1 °F - 33.1 °F 50% 29.69 in 10.0 mi WNW 6.9 mph - N/A   Scattered Clouds
5:52 PM 46.0 °F - 33.1 °F 61% 29.70 in 10.0 mi Calm Calm - N/A   Clear
6:52 PM 41.0 °F 38.0 °F 32.0 °F 70% 29.71 in 10.0 mi North 4.6 mph - N/A   Overcast
7:52 PM 37.0 °F 29.8 °F 30.9 °F 79% 29.74 in 10.0 mi South 10.4 mph - N/A   Clear
8:52 PM 37.9 °F 34.4 °F 32.0 °F 79% 29.74 in 10.0 mi SW 4.6 mph - N/A   Clear
9:52 PM 37.0 °F 34.5 °F 30.9 °F 79% 29.73 in 10.0 mi West 3.5 mph - N/A   Scattered Clouds
10:52 PM 34.0 °F 29.8 °F 28.9 °F 82% 29.72 in 9.0 mi WNW 4.6 mph - N/A   Clear
11:52 PM 34.0 °F 28.8 °F 28.9 °F 82% 29.71 in 10.0 mi NW 5.8 mph - N/A   Clear